Location: Sandy Point Observatory
(37.2521°N, 76.9605°W)
Time: 18:36:24
(UTC-04:00)

Hubble Space Telescope - Visible Passes

Search period start: 18 July 2018 00:00
Search period end: 28 July 2018 00:00
Orbit: 537 x 541 km, 28.5° (Epoch: 17 July)

Date Brightness Start Highest point End Pass type
(mag) Time Alt. Az. Time Alt. Az. Time Alt. Az.
18 Jul 2.7 03:56:28 17° SE 03:56:28 17° SE 03:58:07 10° ESE visible
18 Jul 2.1 05:32:27 10° WSW 05:35:47 24° S 05:39:07 10° SE visible
19 Jul 2.9 03:46:41 15° SE 03:46:41 15° SE 03:47:49 10° ESE visible
19 Jul 2.1 05:22:03 10° WSW 05:25:21 23° S 05:28:38 10° SE visible
20 Jul 3.2 03:36:58 12° SE 03:36:58 12° SE 03:37:29 10° ESE visible
20 Jul 2.2 05:12:20 13° SW 05:14:54 22° S 05:18:06 10° SE visible
21 Jul 2.2 05:02:44 16° SW 05:04:27 20° S 05:07:31 10° SE visible
22 Jul 2.3 04:53:17 18° SSW 04:54:01 18° SSW 04:56:53 10° SSE visible
23 Jul 2.5 04:43:59 16° S 04:43:59 16° S 04:46:09 10° SSE visible
24 Jul 3.0 04:34:54 11° S 04:34:54 11° S 04:35:18 10° SSE visible
